Retour au catalogue

COSMOS 1818 COOLANT

LostLEO
NORAD 36948·DEBRIS·🇷🇺 Russia

Lancé Feb 1, 1987 depuis Baikonur Cosmodrome

Loading…

Prochains Passages (prochaines 24 heures)

TLE

PériméSource: Space-Track

Époque: Jun 5, 2015, 05:38 UTC

1 36948U 87011AC  15156.23536568  .00000297  00000-0  14519-3 0  9994
2 36948  65.0057   9.9574 0016070 277.9437  81.9824 14.32817609297069

Suivez COSMOS 1818 COOLANT en temps réel avec AllMySat

Download on the App Store